SCP
3 3 3 3 2 2 2 2 3 4 5 6 6 6 6 5 5 4 3 2 2 2 1 2 2 1 1 1 1 1 1 0 0 0 0 0 0 0 1 0 0 0 0
2 2 2 2 2 3 3 2 3 3 4 6 7 7 6 5 5 4 3 2 2 2 2 2 2 2 1 1 1 1 0 0 0 0 0 0 0 0 0 0 0 0 0
2 2 2 2 2 2 2 2 2 3 3 5 8 8 7 5 5 4 4 3 2 2 2 2 2 2 2 2 1 1 0 0 0 0 0 0 0 0 0 0 0 0 0
1 1 1 1 1 2 2 2 2 2 2 4 7 8 7 6 5 4 4 4 3 2 2 2 2 2 2 2 2 1 1 0 0 0 0 0 0 0 0 0 0 0 0
1 1 1 1 1 1 2 2 2 2 2 3 6 7 7 6 5 4 4 4 4 3 2 2 2 2 2 2 1 1 1 0 0 0 0 0 0 0 0 0 0 0 0
1 1 1 2 2 2 2 2 2 2 2 2 4 5 5 5 4 3 3 4 4 4 3 2 1 1 1 1 1 1 0 0 0 0 0 0 0 0 0 0 0 0 0
1 1 1 2 2 2 2 2 2 2 2 2 3 4 4 3 3 2 2 3 3 3 3 2 1 1 1 0 0 0 0 0 0 0 0 0 0 0 0 0 0 0 0
0 0 1 1 1 1 1 1 2 2 2 2 3 3 2 2 1 1 1 1 1 1 2 1 1 1 0 0 0 0 0 0 0 0 0 0 0 0 0 0 0 0 0
0 0 0 0 0 0 0 0 1 1 2 2 2 2 2 1 1 1 1 0 0 0 0 1 1 0 0 0 0 0 0 0 0 0 0 0 0 0 0 0 0 0 0
0 0 0 0 0 0 0 0 0 0 1 1 2 2 1 1 1 0 0 0 0 0 0 0 0 0 0 0 0 0 0 0 0 0 0 0 0 0 0 0 0 0 0
0 0 0 0 0 0 0 0 0 0 0 0 1 1 1 1 0 0 0 0 0 0 0 0 0 0 0 0 0 0 0 0 0 0 0 0 0 0 0 0 0 0 0
0 0 0 0 0 0 0 0 0 0 0 0 0 1 0 0 0 0 0 0 0 0 0 0 0 0 0 0 0 0 0 0 0 0 0 0 0 0 0 0 0 0 0
0 0 0 0 0 0 0 0 0 0 0 0 0 1 0 0 0 0 0 0 0 0 0 0 0 0 0 0 0 0 0 0 0 0 0 0 0 0 0 0 0 0 0
0 0 0 0 0 0 0 0 0 0 0 0 0 0 0 0 0 0 0 0 0 0 0 0 0 0 0 0 0 0 0 0 0 0 0 0 0 0 0 0 0 0 0
0 0 0 0 0 0 0 0 0 0 0 0 0 0 0 0 0 0 0 0 0 0 0 0 0 0 0 0 0 0 0 0 0 0 0 0 0 0 0 0 0 0 0
0 0 0 0 0 0 0 0 0 0 0 0 0 0 0 0 0 0 0 0 0 0 0 0 0 0 0 0 0 0 0 0 0 0 0 0 0 0 0 0 0 0 0
0 0 0 0 0 0 0 0 0 0 0 0 0 0 0 0 0 0 0 0 0 0 0 0 0 0 0 0 0 0 0 0 0 0 0 0 0 0 0 0 0 0 0
0 0 0 0 0 0 0 0 0 0 0 0 0 0 0 0 0 0 0 0 0 0 0 0 0 0 0 0 0 0 0 0 0 0 0 0 0 0 0 0 0 0 0
0 0 0 0 0 0 0 0 0 0 0 0 0 0 0 0 0 0 0 0 0 0 0 0 0 0 0 0 0 0 0 0 0 0 0 0 0 0 0 0 0 0 0
0 0 0 0 0 0 0 0 0 0 0 0 0 0 0 0 0 0 0 0 0 0 0 0 0 0 0 0 0 0 0 0 0 0 0 0 0 0 0 0 0 0 0
0 0 0 0 0 0 0 0 0 0 0 0 0 0 0 0 0 0 0 0 0 0 0 0 0 0 0 0 0 0 0 0 0 0 0 0 0 0 0 0 0 0 0
0 0 0 0 0 0 0 0 0 0 0 0 0 0 0 0 0 0 0 0 0 0 0 0 0 0 0 0 0 0 0 0 0 0 0 0 0 0 0 0 0 0 0
0 0 0 0 0 0 0 0 0 0 0 0 0 0 0 0 0 0 0 0 0 0 0 0 0 0 0 0 0 0 0 0 0 0 0 0 0 0 0 0 0 0 0
0 0 0 0 0 0 0 0 0 0 0 0 0 0 0 0 0 0 0 0 0 0 0 0 0 0 0 0 0 0 0 0 0 0 0 0 0 0 0 0 0 0 0
0 0 0 0 0 0 0 0 0 0 0 0 0 0 0 0 0 0 0 0 0 0 0 0 0 0 0 0 0 0 0 0 0 0 0 0 0 0 0 0 0 0 0
0 0 0 0 0 0 0 0 0 0 0 0 0 0 0 0 0 0 0 0 0 0 0 0 0 0 0 0 0 0 0 0 0 0 0 0 0 0 0 0 0 0 0
Wind_Speed
5 6 7 7 7 8 7 6 5 3 2 1 1 1 0 1 1 1 2 3 2 2 1 0 0 1 1 2 2 2 3 2 3 3 2 2 3 3 2 2 3 4 4
5 6 7 7 8 7 7 6 6 5 3 1 1 1 1 0 1 1 3 3 3 2 1 1 0 1 1 2 2 3 2 2 2 2 3 2 1 1 2 2 3 4 4
5 5 6 7 7 7 7 5 5 5 4 2 1 1 1 1 2 2 2 3 2 1 1 1 1 0 1 2 3 3 4 4 2 2 3 3 3 2 2 2 2 3 3
5 4 5 6 6 6 6 6 6 6 4 3 2 2 2 1 1 1 2 3 3 3 2 2 1 0 0 1 2 3 2 4 3 1 1 1 3 4 3 1 2 2 3
5 4 4 5 5 6 6 6 7 7 6 5 3 3 3 1 1 2 3 3 4 4 4 2 1 1 0 0 1 1 1 2 3 2 2 2 1 1 3 3 2 2 2
5 5 5 5 5 6 6 6 7 8 7 7 6 4 4 3 3 3 3 3 3 3 4 3 3 2 2 1 1 1 2 1 1 2 2 2 2 2 2 3 4 3 1
6 5 4 4 5 6 6 6 7 7 7 7 6 5 4 4 3 3 3 3 3 3 4 4 3 3 3 3 2 2 2 2 2 2 1 1 1 2 2 4 3 3 1
6 5 4 4 4 5 6 6 7 7 7 6 5 5 5 3 3 3 3 3 2 3 4 4 3 4 4 4 3 3 3 3 3 3 2 2 2 2 3 4 5 4 2
6 5 4 4 4 5 5 5 6 6 6 6 5 5 5 5 4 4 4 3 3 3 4 4 5 5 5 5 4 4 4 4 4 4 4 3 2 2 2 3 4 4 4
6 5 4 3 4 4 4 5 5 5 5 6 5 5 5 5 4 4 5 5 5 5 5 5 6 6 6 6 5 5 5 6 5 4 5 5 3 3 3 3 2 2 3
8 6 4 3 3 4 4 5 5 5 5 6 5 5 5 5 5 5 5 5 5 6 6 5 6 6 6 6 6 6 6 6 6 5 6 6 4 4 3 3 3 3 3
7 6 4 4 3 4 4 4 4 4 4 4 5 5 5 5 6 6 5 5 6 6 6 6 6 6 6 5 6 6 6 6 6 6 6 6 4 5 4 4 4 3 3
8 6 5 3 3 3 3 3 3 4 4 4 5 5 5 6 5 5 5 5 6 6 6 6 6 6 6 5 5 6 6 6 6 5 6 5 5 6 4 5 4 3 4
8 7 5 3 3 3 3 3 3 3 4 4 5 5 5 5 5 5 5 5 6 6 7 7 6 6 6 6 6 6 6 6 6 6 6 5 5 5 5 5 5 5 5
9 8 6 4 4 3 3 3 3 3 4 5 5 5 4 4 5 6 5 6 6 7 6 7 7 7 6 6 6 6 6 6 7 7 7 6 7 7 5 4 4 5 4
9 8 7 6 5 4 3 3 3 3 4 4 4 4 4 5 5 5 5 6 6 6 7 7 7 7 6 8 9 6 6 6 7 6 6 6 8 9 10 9 7 5 5
9 8 7 6 5 4 4 3 2 3 4 4 4 4 5 5 5 5 6 6 5 6 7 6 6 7 7 9 9 9 6 6 6 6 5 5 6 7 6 8 9 8 6
9 8 7 6 5 5 4 4 4 4 4 4 4 4 5 5 5 6 6 5 4 5 5 5 6 6 7 9 9 9 7 6 6 6 5 5 5 5 5 6 6 6 5
8 7 7 7 6 5 5 5 4 4 4 4 4 4 4 4 5 5 5 4 4 5 5 4 6 6 6 8 8 7 5 5 6 5 5 5 5 6 6 6 5 5 4
8 8 7 7 6 5 5 5 4 3 3 3 3 4 4 4 4 4 4 4 4 4 5 6 6 6 5 7 8 6 4 4 4 4 5 6 6 6 5 4 4 4 3
9 9 8 7 6 5 5 5 4 3 2 3 4 4 4 4 4 4 3 4 5 5 5 5 5 6 6 6 7 6 3 3 3 3 3 4 6 5 4 3 2 1 0
9 8 8 6 5 5 6 5 3 2 3 4 4 4 4 3 4 4 4 4 4 4 4 4 4 4 5 6 6 7 5 3 3 2 2 3 5 4 4 2 2 2 2
8 7 8 7 5 4 5 5 3 3 4 4 4 3 4 3 3 3 3 3 3 3 2 3 3 3 3 4 7 7 6 5 2 1 3 4 4 4 4 4 4 3 2
8 7 8 7 5 3 3 3 3 4 5 4 3 3 3 3 3 2 2 2 2 2 2 1 1 1 2 3 3 3 3 4 3 3 3 5 6 5 4 3 3 3 2
6 6 7 7 5 4 3 3 4 4 4 3 3 2 2 2 2 3 2 1 0 2 2 2 1 1 1 2 2 1 1 2 2 2 3 3 3 4 4 3 3 2 2
6 7 6 6 5 4 4 3 3 4 5 3 2 2 2 2 2 2 2 4 1 1 2 3 3 1 2 2 1 2 2 2 2 3 3 3 3 3 3 3 3 2 2
Wind_Direction
67 50 42 42 44 43 42 39 43 38 64 93 107 108 107 70 44 31 27 15 3 357 334 321 181 163 169 180 177 166 163 160 140 125 120 82 74 82 84 104 107 103 98
67 50 41 37 40 42 40 36 33 26 24 20 154 148 141 78 64 16 37 23 3 353 349 359 308 201 180 169 180 166 169 170 164 149 140 137 111 85 79 92 104 106 100
85 51 40 35 34 35 32 34 29 27 22 11 39 59 57 43 27 5 21 17 353 348 0 4 339 264 181 186 193 181 169 180 189 174 156 159 175 134 82 82 98 109 105
95 71 50 36 32 28 27 32 32 32 24 25 57 81 85 71 13 2 7 8 9 6 6 7 2 336 205 196 199 184 183 169 176 192 177 137 142 148 140 97 92 105 104
105 88 63 45 35 30 32 32 35 34 26 30 46 70 66 55 30 36 31 15 10 10 13 13 12 19 28 158 164 165 153 164 173 166 144 113 92 110 138 149 143 99 75
107 88 68 53 41 34 37 36 41 36 28 33 37 53 60 53 49 36 31 13 5 4 12 19 22 16 18 20 70 116 115 126 142 136 134 143 148 162 134 145 148 129 86
120 104 81 60 48 38 35 36 41 37 29 34 36 40 45 47 45 29 28 21 11 6 6 20 21 21 22 29 40 62 71 87 96 94 116 120 124 132 128 130 131 120 98
129 118 101 80 63 48 37 38 37 33 27 32 32 34 40 49 43 35 32 30 21 9 10 22 29 34 40 46 45 57 53 66 71 67 74 86 87 107 128 136 140 130 111
136 123 107 85 67 54 42 40 40 34 26 28 32 34 33 39 38 33 36 32 22 23 28 33 36 40 45 51 58 60 58 62 63 64 68 68 63 79 95 120 143 146 148
136 124 111 92 72 61 49 47 47 41 31 27 30 39 35 37 39 42 41 39 32 33 39 44 44 45 46 50 58 61 59 64 55 58 66 63 59 66 77 96 90 100 129
148 141 127 106 86 67 55 48 45 45 36 31 30 37 37 38 44 47 41 40 41 40 44 47 52 54 52 49 59 58 59 64 57 54 63 59 61 71 69 76 81 81 96
143 136 131 117 98 78 62 51 45 46 39 38 39 40 40 41 44 43 38 42 45 44 47 50 54 57 55 50 58 61 56 60 58 52 57 51 59 63 66 74 78 81 87
139 135 130 122 105 85 69 55 47 45 42 47 48 44 40 41 40 41 39 45 51 47 48 53 54 54 53 54 58 63 62 60 57 56 59 53 63 62 61 68 75 76 81
147 144 138 130 111 94 80 66 49 44 50 54 53 45 38 40 43 44 44 46 52 52 48 50 51 52 52 54 58 62 62 58 55 55 56 55 64 71 73 75 78 85 86
154 154 151 143 127 108 87 72 57 49 54 58 53 44 38 44 52 50 47 48 51 54 53 55 51 49 51 49 55 61 63 60 56 52 50 54 61 64 70 84 89 94 94
161 157 152 147 141 131 114 92 74 61 63 62 52 46 50 52 52 53 54 54 51 51 52 52 53 52 50 45 54 66 65 61 60 54 46 50 52 57 63 72 80 92 107
156 157 155 152 145 135 121 111 96 76 69 65 59 56 57 54 51 57 59 57 52 55 56 52 54 53 45 49 56 59 65 60 55 50 46 50 49 54 66 66 64 60 68
154 153 148 142 135 126 119 109 90 81 73 64 59 58 63 60 54 57 56 52 53 58 56 51 50 53 44 50 59 61 61 59 51 47 47 54 42 48 65 71 64 55 47
142 139 138 135 131 128 123 112 97 85 75 67 59 58 69 67 59 57 52 51 59 57 52 52 50 54 42 44 57 67 65 59 47 41 40 47 49 46 66 76 70 56 37
124 126 125 122 124 124 120 112 106 93 86 79 70 64 74 77 68 62 58 57 64 62 59 55 47 50 43 39 54 66 76 65 48 36 32 38 44 44 61 81 81 60 22
123 124 124 125 129 130 122 115 111 106 104 96 81 70 69 77 75 68 63 69 71 66 58 54 45 41 35 32 43 59 75 77 58 40 22 12 22 39 55 79 89 94 25
123 124 123 120 123 128 124 117 115 111 100 94 84 73 66 72 81 80 70 69 75 70 56 51 41 30 22 27 36 52 64 73 75 46 2 346 8 35 46 58 62 74 89
125 123 123 120 116 121 124 126 130 118 107 94 85 77 71 65 74 87 87 77 76 79 67 62 49 21 11 16 34 43 47 51 58 14 356 9 30 43 43 46 55 68 74
124 124 124 124 123 126 125 134 130 119 110 102 96 87 78 61 45 56 78 97 104 102 95 89 63 23 8 9 12 14 20 27 33 18 15 31 43 48 40 35 41 48 55
120 125 130 133 136 133 126 126 122 118 111 106 104 93 79 81 56 46 42 70 162 200 170 174 171 145 354 316 327 358 2 0 7 18 27 28 24 23 21 21 26 35 44
123 124 126 129 132 128 122 118 124 128 124 116 107 103 98 84 79 72 46 38 46 55 166 184 181 225 248 290 335 12 23 30 49 61 42 28 23 19 8 4 6 16 24